QPF
0.07 0.09 0.12 0.23 0.33 0.39 0.39 0.33 0.27 0.21 0.17 0.13 0.11 0.09 0.10 0.08 0.06 0.05 0.04 0.04 0.04 0.04 0.03 0.03 0.02 0.02 0.02 0.02 0.01 0.01 0.01 0.00 0.00 0.00 0.00 0.01 0.00 0.01 0.01 0.01 0.01 0.01 0.01
0.07 0.10 0.14 0.22 0.27 0.38 0.42 0.38 0.34 0.28 0.20 0.14 0.12 0.11 0.12 0.10 0.07 0.05 0.04 0.03 0.04 0.03 0.02 0.02 0.02 0.02 0.02 0.02 0.01 0.01 0.00 0.00 0.00 0.00 0.00 0.00 0.00 0.00 0.00 0.00 0.01 0.01 0.00
0.06 0.06 0.14 0.20 0.26 0.35 0.44 0.38 0.35 0.34 0.26 0.19 0.16 0.14 0.12 0.10 0.06 0.03 0.02 0.02 0.02 0.02 0.02 0.02 0.02 0.01 0.01 0.01 0.01 0.01 0.00 0.00 0.00 0.00 0.00 0.00 0.00 0.00 0.00 0.00 0.00 0.00 0.00
0.03 0.04 0.11 0.19 0.25 0.30 0.33 0.30 0.27 0.31 0.29 0.22 0.13 0.08 0.06 0.05 0.04 0.03 0.03 0.03 0.02 0.01 0.01 0.01 0.01 0.01 0.01 0.01 0.00 0.01 0.01 0.00 0.01 0.01 0.00 0.00 0.00 0.00 0.00 0.00 0.00 0.00 0.00
0.05 0.04 0.07 0.16 0.17 0.24 0.24 0.21 0.16 0.25 0.25 0.20 0.13 0.09 0.05 0.05 0.04 0.03 0.02 0.02 0.02 0.01 0.01 0.01 0.00 0.00 0.00 0.00 0.00 0.01 0.01 0.00 0.01 0.01 0.01 0.01 0.00 0.00 0.00 0.00 0.00 0.00 0.00
0.05 0.06 0.11 0.17 0.16 0.14 0.14 0.12 0.10 0.16 0.19 0.15 0.12 0.10 0.06 0.05 0.04 0.02 0.01 0.01 0.01 0.01 0.01 0.01 0.01 0.01 0.01 0.01 0.01 0.00 0.01 0.01 0.01 0.01 0.01 0.01 0.01 0.00 0.00 0.00 0.00 0.00 0.00
0.03 0.06 0.09 0.12 0.12 0.10 0.09 0.07 0.09 0.13 0.12 0.09 0.08 0.08 0.07 0.05 0.03 0.03 0.02 0.01 0.01 0.02 0.02 0.02 0.02 0.02 0.01 0.01 0.01 0.01 0.01 0.01 0.01 0.01 0.01 0.01 0.01 0.00 0.00 0.00 0.00 0.00 0.00
0.01 0.02 0.03 0.06 0.09 0.08 0.06 0.05 0.08 0.10 0.07 0.06 0.07 0.07 0.05 0.04 0.04 0.03 0.02 0.02 0.02 0.02 0.03 0.03 0.02 0.02 0.01 0.01 0.01 0.01 0.01 0.01 0.01 0.01 0.01 0.01 0.01 0.00 0.00 0.00 0.00 0.00 0.00
0.01 0.01 0.01 0.02 0.04 0.04 0.03 0.03 0.05 0.06 0.06 0.06 0.07 0.07 0.06 0.04 0.03 0.03 0.02 0.01 0.01 0.01 0.01 0.01 0.02 0.01 0.01 0.01 0.01 0.01 0.01 0.01 0.01 0.01 0.00 0.00 0.00 0.00 0.00 0.00 0.00 0.00 0.00
0.02 0.01 0.01 0.02 0.03 0.03 0.03 0.03 0.03 0.04 0.04 0.05 0.06 0.07 0.07 0.05 0.03 0.03 0.01 0.01 0.01 0.01 0.00 0.01 0.02 0.02 0.01 0.01 0.01 0.01 0.00 0.00 0.00 0.00 0.00 0.00 0.00 0.00 0.00 0.00 0.00 0.00 0.00
0.02 0.02 0.02 0.02 0.03 0.03 0.03 0.03 0.03 0.03 0.04 0.03 0.03 0.03 0.03 0.03 0.03 0.03 0.02 0.01 0.01 0.01 0.01 0.01 0.01 0.02 0.01 0.01 0.01 0.01 0.01 0.00 0.00 0.00 0.00 0.00 0.00 0.00 0.00 0.00 0.00 0.00 0.00
0.01 0.01 0.02 0.03 0.02 0.02 0.02 0.02 0.03 0.02 0.03 0.02 0.02 0.02 0.02 0.03 0.03 0.02 0.02 0.02 0.01 0.01 0.02 0.02 0.01 0.01 0.01 0.02 0.01 0.02 0.01 0.00 0.00 0.00 0.00 0.00 0.00 0.00 0.00 0.00 0.00 0.00 0.00
0.00 0.01 0.01 0.01 0.01 0.01 0.01 0.02 0.03 0.02 0.02 0.02 0.02 0.02 0.02 0.02 0.03 0.03 0.02 0.02 0.01 0.02 0.02 0.02 0.01 0.01 0.01 0.02 0.02 0.01 0.01 0.00 0.00 0.00 0.00 0.00 0.00 0.00 0.00 0.00 0.00 0.00 0.00
0.00 0.00 0.00 0.01 0.01 0.01 0.01 0.01 0.02 0.01 0.01 0.01 0.01 0.01 0.01 0.02 0.04 0.03 0.02 0.02 0.02 0.02 0.01 0.01 0.01 0.01 0.01 0.02 0.03 0.03 0.02 0.01 0.01 0.01 0.00 0.00 0.00 0.00 0.00 0.00 0.00 0.00 0.00
0.00 0.00 0.01 0.01 0.01 0.01 0.02 0.02 0.02 0.02 0.01 0.01 0.01 0.01 0.01 0.02 0.04 0.03 0.03 0.04 0.03 0.02 0.03 0.02 0.02 0.01 0.01 0.01 0.02 0.03 0.03 0.02 0.02 0.01 0.01 0.01 0.00 0.00 0.00 0.00 0.00 0.00 0.00
0.01 0.01 0.01 0.02 0.02 0.02 0.01 0.02 0.03 0.03 0.02 0.01 0.01 0.02 0.03 0.03 0.03 0.03 0.03 0.05 0.04 0.04 0.04 0.03 0.03 0.02 0.02 0.02 0.03 0.02 0.02 0.01 0.01 0.01 0.01 0.01 0.01 0.00 0.00 0.00 0.00 0.00 0.00
0.01 0.02 0.03 0.03 0.02 0.02 0.03 0.03 0.03 0.04 0.04 0.04 0.04 0.04 0.04 0.04 0.04 0.04 0.03 0.04 0.04 0.04 0.03 0.02 0.02 0.02 0.02 0.02 0.02 0.02 0.01 0.01 0.01 0.01 0.01 0.01 0.01 0.01 0.01 0.01 0.01 0.01 0.01
0.02 0.02 0.03 0.03 0.04 0.03 0.03 0.04 0.06 0.07 0.06 0.06 0.08 0.08 0.08 0.06 0.06 0.05 0.05 0.04 0.04 0.04 0.04 0.02 0.02 0.02 0.01 0.02 0.02 0.02 0.02 0.01 0.01 0.01 0.01 0.01 0.01 0.01 0.01 0.01 0.00 0.00 0.00
0.02 0.03 0.03 0.04 0.04 0.04 0.04 0.06 0.07 0.09 0.09 0.07 0.06 0.07 0.07 0.07 0.06 0.07 0.09 0.09 0.06 0.05 0.05 0.05 0.04 0.03 0.02 0.03 0.03 0.03 0.02 0.02 0.02 0.02 0.02 0.02 0.02 0.02 0.01 0.01 0.01 0.01 0.01
0.03 0.03 0.03 0.05 0.06 0.05 0.07 0.09 0.10 0.10 0.09 0.07 0.07 0.09 0.10 0.09 0.09 0.10 0.12 0.12 0.09 0.06 0.07 0.06 0.06 0.06 0.05 0.06 0.07 0.06 0.05 0.04 0.04 0.04 0.03 0.03 0.03 0.02 0.02 0.02 0.01 0.02 0.02
0.05 0.04 0.04 0.06 0.07 0.08 0.10 0.12 0.13 0.14 0.13 0.13 0.13 0.14 0.13 0.13 0.13 0.15 0.16 0.14 0.11 0.10 0.11 0.11 0.11 0.10 0.09 0.10 0.10 0.09 0.07 0.05 0.05 0.04 0.04 0.04 0.05 0.05 0.05 0.05 0.04 0.04 0.03
0.05 0.05 0.06 0.07 0.07 0.08 0.11 0.14 0.16 0.16 0.16 0.16 0.17 0.17 0.16 0.16 0.17 0.17 0.17 0.15 0.13 0.11 0.11 0.12 0.12 0.11 0.09 0.08 0.08 0.08 0.06 0.05 0.05 0.04 0.04 0.04 0.05 0.05 0.05 0.05 0.04 0.03 0.03
0.06 0.06 0.08 0.13 0.15 0.15 0.14 0.15 0.14 0.15 0.15 0.15 0.16 0.17 0.16 0.16 0.16 0.15 0.15 0.15 0.15 0.14 0.11 0.10 0.08 0.08 0.08 0.07 0.06 0.06 0.05 0.04 0.04 0.03 0.04 0.04 0.04 0.03 0.02 0.02 0.02 0.02 0.01
0.07 0.07 0.06 0.09 0.12 0.12 0.10 0.09 0.09 0.09 0.09 0.11 0.15 0.18 0.20 0.19 0.18 0.18 0.17 0.16 0.15 0.16 0.17 0.15 0.13 0.11 0.10 0.08 0.06 0.06 0.06 0.07 0.06 0.05 0.05 0.05 0.05 0.05 0.04 0.03 0.03 0.03 0.03
0.07 0.06 0.05 0.04 0.05 0.06 0.06 0.06 0.06 0.08 0.10 0.12 0.15 0.18 0.20 0.19 0.19 0.19 0.18 0.15 0.13 0.14 0.14 0.12 0.10 0.10 0.09 0.09 0.10 0.08 0.06 0.06 0.06 0.06 0.06 0.06 0.06 0.06 0.06 0.05 0.04 0.04 0.05
0.07 0.06 0.04 0.03 0.02 0.03 0.04 0.05 0.05 0.07 0.11 0.15 0.17 0.18 0.19 0.18 0.17 0.16 0.16 0.15 0.12 0.12 0.11 0.10 0.10 0.10 0.11 0.12 0.12 0.11 0.11 0.10 0.10 0.09 0.07 0.08 0.08 0.07 0.06 0.05 0.03 0.03 0.03
MSLP
1008.47 1008.36 1008.11 1007.76 1007.43 1007.21 1007.22 1007.51 1008.13 1009.03 1010.13 1011.32 1012.48 1013.50 1014.33 1014.94 1015.33 1015.58 1015.76 1015.94 1016.18 1016.51 1016.94 1017.44 1017.97 1018.50 1018.98 1019.40 1019.76 1020.06 1020.33 1020.56 1020.78 1020.97 1021.12 1021.22 1021.25 1021.21 1021.10 1020.93 1020.75 1020.58 1020.45
1008.49 1008.37 1008.09 1007.71 1007.33 1007.06 1007.03 1007.29 1007.91 1008.83 1009.97 1011.21 1012.44 1013.52 1014.39 1015.00 1015.39 1015.62 1015.77 1015.92 1016.14 1016.47 1016.91 1017.43 1017.98 1018.53 1019.02 1019.44 1019.79 1020.06 1020.30 1020.51 1020.72 1020.92 1021.10 1021.24 1021.33 1021.34 1021.27 1021.15 1020.98 1020.80 1020.65
1008.48 1008.39 1008.14 1007.79 1007.42 1007.16 1007.11 1007.36 1007.96 1008.88 1010.03 1011.29 1012.53 1013.63 1014.50 1015.12 1015.49 1015.70 1015.82 1015.94 1016.14 1016.45 1016.88 1017.41 1017.97 1018.51 1019.00 1019.40 1019.71 1019.95 1020.16 1020.35 1020.55 1020.76 1020.98 1021.18 1021.34 1021.42 1021.43 1021.36 1021.23 1021.08 1020.93
1008.45 1008.44 1008.29 1008.02 1007.73 1007.50 1007.47 1007.72 1008.30 1009.18 1010.29 1011.51 1012.72 1013.79 1014.64 1015.23 1015.59 1015.76 1015.86 1015.96 1016.14 1016.44 1016.85 1017.36 1017.91 1018.44 1018.90 1019.28 1019.56 1019.77 1019.95 1020.12 1020.32 1020.56 1020.81 1021.07 1021.29 1021.45 1021.54 1021.54 1021.47 1021.35 1021.22
1008.43 1008.54 1008.53 1008.40 1008.21 1008.07 1008.08 1008.32 1008.85 1009.66 1010.68 1011.82 1012.94 1013.95 1014.74 1015.30 1015.62 1015.78 1015.87 1015.95 1016.12 1016.40 1016.80 1017.30 1017.82 1018.33 1018.77 1019.12 1019.38 1019.57 1019.73 1019.89 1020.09 1020.34 1020.62 1020.93 1021.21 1021.44 1021.59 1021.66 1021.65 1021.58 1021.47
1008.41 1008.67 1008.83 1008.87 1008.83 1008.78 1008.83 1009.05 1009.52 1010.22 1011.12 1012.13 1013.13 1014.03 1014.75 1015.26 1015.56 1015.72 1015.80 1015.89 1016.06 1016.33 1016.72 1017.20 1017.71 1018.19 1018.61 1018.95 1019.19 1019.37 1019.53 1019.69 1019.89 1020.15 1020.45 1020.78 1021.10 1021.37 1021.57 1021.69 1021.73 1021.70 1021.63
1008.38 1008.81 1009.15 1009.37 1009.47 1009.52 1009.61 1009.81 1010.19 1010.77 1011.51 1012.36 1013.22 1014.00 1014.64 1015.10 1015.38 1015.54 1015.64 1015.76 1015.94 1016.22 1016.61 1017.07 1017.57 1018.04 1018.45 1018.79 1019.03 1019.22 1019.38 1019.55 1019.75 1020.01 1020.31 1020.64 1020.97 1021.26 1021.49 1021.64 1021.71 1021.72 1021.67
1008.32 1008.91 1009.42 1009.80 1010.04 1010.18 1010.30 1010.47 1010.76 1011.20 1011.79 1012.47 1013.17 1013.84 1014.39 1014.81 1015.10 1015.28 1015.41 1015.56 1015.77 1016.07 1016.47 1016.93 1017.42 1017.89 1018.30 1018.64 1018.91 1019.11 1019.28 1019.46 1019.67 1019.92 1020.21 1020.52 1020.83 1021.11 1021.34 1021.50 1021.59 1021.63 1021.61
1008.21 1008.92 1009.57 1010.09 1010.45 1010.66 1010.80 1010.94 1011.15 1011.47 1011.90 1012.43 1013.00 1013.56 1014.05 1014.45 1014.74 1014.95 1015.14 1015.33 1015.58 1015.90 1016.31 1016.77 1017.26 1017.73 1018.16 1018.52 1018.81 1019.04 1019.24 1019.44 1019.65 1019.88 1020.15 1020.43 1020.70 1020.95 1021.16 1021.32 1021.42 1021.47 1021.49
1008.00 1008.81 1009.56 1010.18 1010.62 1010.89 1011.05 1011.17 1011.32 1011.54 1011.86 1012.27 1012.74 1013.22 1013.66 1014.05 1014.36 1014.61 1014.84 1015.09 1015.37 1015.72 1016.14 1016.60 1017.09 1017.57 1018.01 1018.40 1018.72 1018.99 1019.22 1019.44 1019.65 1019.88 1020.12 1020.36 1020.59 1020.80 1020.98 1021.12 1021.23 1021.30 1021.34
1007.70 1008.55 1009.36 1010.02 1010.52 1010.83 1011.02 1011.14 1011.26 1011.43 1011.69 1012.03 1012.43 1012.86 1013.28 1013.67 1014.00 1014.30 1014.57 1014.85 1015.17 1015.54 1015.97 1016.43 1016.92 1017.40 1017.86 1018.26 1018.62 1018.92 1019.19 1019.43 1019.65 1019.87 1020.09 1020.29 1020.49 1020.66 1020.81 1020.93 1021.04 1021.13 1021.20
1007.32 1008.16 1008.96 1009.64 1010.15 1010.50 1010.71 1010.86 1010.99 1011.17 1011.41 1011.73 1012.12 1012.53 1012.95 1013.34 1013.70 1014.02 1014.33 1014.64 1014.98 1015.36 1015.79 1016.25 1016.73 1017.21 1017.67 1018.10 1018.48 1018.81 1019.11 1019.37 1019.60 1019.82 1020.02 1020.20 1020.36 1020.50 1020.63 1020.74 1020.85 1020.95 1021.05
1006.87 1007.65 1008.39 1009.03 1009.54 1009.91 1010.17 1010.37 1010.56 1010.78 1011.06 1011.41 1011.81 1012.23 1012.66 1013.06 1013.44 1013.78 1014.11 1014.44 1014.79 1015.17 1015.59 1016.05 1016.52 1017.00 1017.46 1017.89 1018.28 1018.63 1018.94 1019.22 1019.46 1019.67 1019.86 1020.03 1020.17 1020.29 1020.40 1020.50 1020.61 1020.72 1020.84
1006.38 1007.04 1007.68 1008.26 1008.74 1009.12 1009.43 1009.70 1009.98 1010.29 1010.65 1011.05 1011.49 1011.95 1012.39 1012.80 1013.19 1013.54 1013.88 1014.21 1014.57 1014.95 1015.37 1015.81 1016.27 1016.74 1017.19 1017.61 1018.00 1018.35 1018.66 1018.94 1019.18 1019.39 1019.57 1019.72 1019.85 1019.96 1020.06 1020.16 1020.26 1020.38 1020.50
1005.86 1006.37 1006.88 1007.36 1007.80 1008.18 1008.55 1008.91 1009.29 1009.70 1010.16 1010.64 1011.14 1011.63 1012.09 1012.51 1012.90 1013.25 1013.59 1013.93 1014.29 1014.68 1015.09 1015.53 1015.98 1016.43 1016.86 1017.26 1017.63 1017.96 1018.25 1018.51 1018.74 1018.94 1019.11 1019.26 1019.38 1019.49 1019.58 1019.67 1019.77 1019.87 1020.00
1005.34 1005.68 1006.04 1006.41 1006.79 1007.18 1007.59 1008.03 1008.52 1009.05 1009.61 1010.17 1010.72 1011.24 1011.72 1012.14 1012.52 1012.88 1013.22 1013.57 1013.94 1014.33 1014.75 1015.19 1015.63 1016.06 1016.46 1016.83 1017.16 1017.45 1017.71 1017.93 1018.14 1018.32 1018.48 1018.62 1018.74 1018.84 1018.94 1019.02 1019.11 1019.20 1019.31
1004.85 1005.01 1005.22 1005.48 1005.80 1006.18 1006.64 1007.16 1007.74 1008.36 1009.00 1009.63 1010.22 1010.76 1011.24 1011.66 1012.04 1012.39 1012.74 1013.10 1013.49 1013.90 1014.34 1014.79 1015.22 1015.63 1016.00 1016.32 1016.60 1016.83 1017.03 1017.21 1017.38 1017.53 1017.68 1017.82 1017.95 1018.06 1018.16 1018.25 1018.32 1018.40 1018.48
1004.45 1004.45 1004.53 1004.69 1004.95 1005.32 1005.79 1006.37 1007.01 1007.70 1008.39 1009.05 1009.66 1010.19 1010.66 1011.07 1011.44 1011.79 1012.15 1012.53 1012.95 1013.39 1013.85 1014.31 1014.74 1015.13 1015.46 1015.73 1015.94 1016.11 1016.25 1016.37 1016.50 1016.63 1016.78 1016.92 1017.07 1017.20 1017.31 1017.41 1017.49 1017.55 1017.60
1004.19 1004.08 1004.05 1004.13 1004.34 1004.69 1005.18 1005.77 1006.44 1007.15 1007.85 1008.50 1009.09 1009.60 1010.04 1010.42 1010.77 1011.12 1011.49 1011.90 1012.35 1012.82 1013.30 1013.77 1014.19 1014.55 1014.84 1015.05 1015.20 1015.30 1015.38 1015.46 1015.55 1015.68 1015.82 1015.99 1016.17 1016.34 1016.49 1016.61 1016.70 1016.76 1016.79
1004.15 1003.97 1003.88 1003.92 1004.09 1004.42 1004.89 1005.47 1006.12 1006.80 1007.46 1008.07 1008.61 1009.07 1009.45 1009.80 1010.12 1010.46 1010.84 1011.26 1011.72 1012.22 1012.71 1013.17 1013.58 1013.91 1014.15 1014.31 1014.40 1014.44 1014.47 1014.52 1014.60 1014.72 1014.89 1015.10 1015.32 1015.55 1015.75 1015.91 1016.03 1016.11 1016.14
1004.39 1004.21 1004.10 1004.12 1004.28 1004.58 1005.01 1005.55 1006.14 1006.75 1007.33 1007.85 1008.30 1008.68 1009.00 1009.28 1009.57 1009.88 1010.25 1010.67 1011.13 1011.62 1012.11 1012.55 1012.93 1013.22 1013.41 1013.52 1013.56 1013.56 1013.56 1013.59 1013.67 1013.82 1014.03 1014.29 1014.57 1014.87 1015.13 1015.36 1015.52 1015.62 1015.67
1004.97 1004.82 1004.75 1004.78 1004.92 1005.19 1005.57 1006.03 1006.53 1007.03 1007.50 1007.90 1008.24 1008.51 1008.75 1008.96 1009.19 1009.47 1009.80 1010.19 1010.63 1011.09 1011.54 1011.94 1012.27 1012.51 1012.65 1012.71 1012.71 1012.69 1012.68 1012.71 1012.82 1013.00 1013.26 1013.58 1013.93 1014.29 1014.62 1014.91 1015.12 1015.26 1015.33
1005.87 1005.81 1005.79 1005.85 1005.99 1006.23 1006.54 1006.90 1007.28 1007.65 1007.98 1008.24 1008.46 1008.62 1008.75 1008.89 1009.05 1009.27 1009.55 1009.89 1010.27 1010.67 1011.06 1011.39 1011.66 1011.83 1011.93 1011.94 1011.92 1011.89 1011.88 1011.93 1012.06 1012.29 1012.59 1012.96 1013.37 1013.79 1014.17 1014.50 1014.76 1014.94 1015.03
1007.07 1007.10 1007.16 1007.25 1007.40 1007.59 1007.82 1008.07 1008.32 1008.55 1008.73 1008.86 1008.94 1008.99 1009.03 1009.08 1009.18 1009.33 1009.54 1009.81 1010.11 1010.43 1010.72 1010.97 1011.16 1011.26 1011.30 1011.28 1011.24 1011.20 1011.20 1011.28 1011.44 1011.69 1012.02 1012.42 1012.86 1013.29 1013.70 1014.05 1014.33 1014.53 1014.64
1008.46 1008.59 1008.72 1008.84 1008.98 1009.13 1009.28 1009.42 1009.54 1009.62 1009.66 1009.67 1009.64 1009.59 1009.55 1009.54 1009.57 1009.65 1009.78 1009.97 1010.18 1010.39 1010.59 1010.74 1010.84 1010.87 1010.86 1010.80 1010.74 1010.70 1010.71 1010.79 1010.96 1011.22 1011.55 1011.94 1012.36 1012.77 1013.16 1013.49 1013.76 1013.95 1014.06
1009.92 1010.14 1010.32 1010.46 1010.58 1010.68 1010.75 1010.79 1010.78 1010.75 1010.68 1010.59 1010.47 1010.36 1010.26 1010.20 1010.18 1010.20 1010.27 1010.37 1010.49 1010.60 1010.70 1010.75 1010.76 1010.72 1010.65 1010.57 1010.49 1010.44 1010.44 1010.52 1010.67 1010.90 1011.18 1011.51 1011.86 1012.21 1012.52 1012.79 1013.01 1013.16 1013.26
Thickness
5750 5747 5744 5741 5736 5732 5730 5728 5727 5726 5725 5724 5723 5721 5721 5722 5722 5723 5723 5723 5723 5721 5720 5718 5717 5716 5715 5714 5714 5712 5711 5710 5710 5709 5708 5709 5710 5711 5711 5712 5712 5711 5711
5744 5742 5740 5738 5734 5730 5728 5726 5724 5724 5724 5724 5723 5722 5720 5720 5720 5721 5721 5721 5721 5720 5719 5718 5716 5715 5714 5712 5712 5711 5709 5708 5708 5707 5704 5701 5703 5707 5709 5709 5709 5709 5709
5743 5741 5738 5736 5733 5730 5727 5725 5723 5722 5722 5721 5720 5718 5716 5716 5716 5716 5718 5719 5719 5719 5718 5716 5715 5714 5713 5711 5711 5711 5710 5707 5706 5707 5705 5700 5697 5700 5704 5705 5706 5706 5706
5744 5741 5738 5735 5733 5732 5729 5725 5723 5721 5720 5719 5718 5717 5715 5713 5715 5716 5716 5716 5716 5717 5716 5715 5714 5713 5712 5711 5711 5711 5710 5708 5706 5705 5705 5704 5703 5700 5698 5701 5702 5703 5703
5744 5740 5738 5736 5734 5732 5728 5725 5722 5720 5719 5719 5718 5717 5715 5715 5714 5714 5713 5713 5713 5714 5715 5714 5713 5712 5711 5711 5710 5710 5710 5709 5707 5706 5704 5702 5701 5701 5699 5696 5697 5699 5700
5744 5740 5739 5736 5734 5731 5727 5724 5721 5718 5719 5718 5717 5717 5715 5714 5713 5711 5710 5710 5711 5711 5713 5712 5711 5711 5710 5710 5709 5709 5709 5708 5708 5706 5705 5704 5702 5699 5698 5695 5694 5694 5696
5745 5740 5737 5735 5733 5731 5728 5724 5721 5718 5719 5718 5718 5718 5717 5715 5714 5712 5711 5710 5709 5710 5710 5711 5710 5710 5709 5709 5708 5708 5707 5707 5706 5706 5705 5704 5703 5701 5699 5696 5692 5691 5691
5747 5743 5740 5737 5735 5733 5730 5726 5722 5720 5720 5719 5719 5718 5717 5716 5714 5713 5712 5711 5711 5711 5711 5710 5710 5709 5709 5708 5707 5706 5706 5705 5705 5704 5703 5702 5701 5700 5699 5696 5692 5688 5687
5748 5744 5741 5738 5736 5734 5731 5729 5725 5723 5721 5720 5719 5717 5716 5716 5715 5714 5713 5713 5712 5711 5710 5710 5709 5709 5708 5708 5706 5705 5705 5704 5703 5702 5701 5700 5699 5698 5697 5696 5694 5689 5684
5749 5746 5743 5740 5737 5735 5733 5730 5727 5725 5722 5721 5719 5718 5717 5717 5716 5715 5713 5713 5712 5712 5710 5709 5709 5708 5707 5706 5705 5704 5703 5702 5701 5700 5698 5697 5696 5695 5694 5692 5691 5689 5686
5750 5747 5745 5743 5740 5737 5733 5730 5728 5725 5723 5721 5720 5719 5718 5717 5716 5715 5714 5714 5713 5711 5710 5709 5708 5707 5706 5705 5704 5703 5701 5700 5698 5697 5696 5695 5693 5692 5690 5688 5686 5684 5683
5752 5750 5748 5744 5741 5738 5735 5732 5730 5727 5726 5724 5721 5720 5719 5717 5716 5715 5715 5714 5713 5712 5711 5709 5708 5706 5705 5704 5702 5701 5700 5698 5697 5695 5693 5692 5691 5689 5687 5684 5683 5681 5679
5751 5750 5748 5745 5742 5740 5738 5735 5733 5731 5728 5725 5722 5720 5719 5718 5717 5716 5715 5714 5713 5711 5710 5708 5707 5706 5705 5703 5701 5699 5698 5696 5695 5693 5691 5690 5687 5685 5683 5681 5679 5677 5675
5751 5749 5747 5745 5744 5742 5740 5738 5735 5733 5730 5726 5723 5721 5720 5719 5718 5717 5716 5714 5713 5711 5709 5708 5707 5706 5704 5701 5699 5697 5695 5694 5692 5691 5689 5687 5685 5683 5681 5678 5676 5674 5671
5747 5747 5747 5746 5744 5743 5741 5740 5738 5735 5732 5728 5725 5723 5722 5720 5718 5717 5715 5714 5712 5711 5710 5707 5705 5703 5701 5700 5697 5695 5693 5690 5688 5687 5686 5684 5683 5681 5678 5676 5673 5670 5666
5747 5747 5747 5746 5745 5744 5743 5741 5739 5736 5733 5730 5727 5725 5723 5720 5718 5717 5715 5713 5711 5709 5707 5705 5703 5701 5700 5699 5696 5693 5690 5688 5685 5683 5682 5680 5678 5677 5675 5672 5670 5666 5662
5745 5746 5747 5747 5746 5746 5745 5741 5740 5737 5733 5730 5728 5726 5723 5721 5719 5717 5714 5712 5709 5707 5705 5703 5701 5699 5697 5696 5693 5690 5687 5685 5682 5680 5677 5676 5675 5672 5670 5668 5665 5662 5660
5742 5744 5745 5746 5747 5746 5744 5742 5739 5736 5732 5730 5727 5725 5723 5721 5718 5716 5713 5711 5709 5706 5704 5701 5698 5696 5694 5692 5689 5686 5683 5681 5679 5677 5674 5671 5670 5668 5665 5662 5660 5658 5656
5739 5741 5744 5745 5745 5743 5742 5739 5735 5733 5731 5728 5727 5725 5723 5719 5716 5713 5711 5710 5706 5703 5700 5698 5695 5692 5690 5688 5684 5681 5678 5676 5674 5672 5669 5666 5664 5662 5658 5654 5653 5652 5650
5733 5736 5739 5740 5739 5739 5738 5734 5731 5728 5726 5726 5724 5723 5721 5717 5714 5711 5709 5706 5703 5700 5697 5693 5690 5688 5686 5683 5679 5675 5672 5669 5668 5666 5663 5660 5658 5655 5651 5648 5646 5644 5644
5724 5728 5730 5731 5731 5732 5732 5729 5725 5723 5723 5721 5719 5716 5715 5712 5710 5707 5704 5701 5698 5695 5691 5689 5686 5683 5681 5678 5674 5670 5667 5665 5662 5659 5657 5655 5652 5648 5644 5641 5639 5638 5635
5713 5717 5719 5719 5722 5724 5724 5720 5717 5717 5716 5714 5711 5709 5707 5706 5703 5700 5697 5694 5690 5687 5684 5682 5679 5677 5674 5671 5668 5664 5661 5659 5656 5654 5651 5648 5644 5640 5636 5633 5631 5628 5624
5701 5704 5707 5708 5710 5712 5712 5709 5707 5707 5706 5705 5701 5699 5697 5695 5693 5691 5688 5684 5682 5678 5675 5673 5670 5668 5666 5663 5660 5657 5654 5651 5648 5646 5643 5639 5635 5631 5627 5624 5621 5617 5614
5688 5691 5694 5694 5694 5696 5697 5697 5697 5697 5696 5693 5690 5688 5686 5684 5683 5680 5678 5674 5671 5669 5666 5663 5661 5659 5657 5654 5651 5648 5645 5642 5638 5635 5632 5628 5624 5620 5616 5613 5610 5606 5603
5676 5677 5678 5679 5680 5683 5684 5685 5685 5686 5684 5682 5679 5677 5675 5674 5671 5668 5665 5663 5661 5659 5656 5653 5651 5649 5646 5643 5640 5637 5634 5631 5628 5623 5620 5616 5612 5609 5606 5602 5599 5596 5592
5662 5664 5664 5665 5667 5669 5670 5671 5673 5674 5673 5670 5667 5665 5663 5661 5658 5655 5652 5649 5648 5646 5644 5641 5639 5636 5633 5630 5627 5625 5621 5617 5614 5609 5607 5604 5600 5597 5594 5590 5588 5584 5581